EW0601 Weather Reports


time (UTC)temp
C
wind
direction
speed
KPH
gust
KPH
rain 1hr
cm
rain 24hr
cm
rain mn
cm
humidity
%
barometer
mb
20260510164511 18 65 6.4 14.5 0.00 0.00 0.00 38 1008.8
20260510163007 18 71 6.4 19.3 0.00 0.00 0.00 38 1008.7
20260510161508 20 61 9.7 17.7 0.00 0.00 0.00 35 1008.6
20260510160002 18 76 11.3 19.3 0.00 0.00 0.00 35 1008.5
20260510154558 19 65 3.2 16.1 0.00 0.00 0.00 33 1008.8
20260510153100 19 71 8.0 17.7 0.00 0.00 0.00 30 1008.8
20260510151554 18 53 1.6 14.5 0.00 0.00 0.00 32 1008.6
20260510150058 18 54 3.2 12.9 0.00 0.00 0.00 30 1008.3
20260510144547 18 52 0.0 0.0 0.00 0.00 0.00 31 1008.1
20260510143052 17 53 0.0 0.0 0.00 0.00 0.00 33 1008.2
20260510141542 17 22 0.0 8.0 0.00 0.00 0.00 32 1008.1
20260510140039 17 23 0.0 0.0 0.00 0.00 0.00 33 1008.0
20260510134539 16 40 0.0 0.0 0.00 0.00 0.00 33 1008.0
20260510133036 16 290 0.0 6.4 0.00 0.00 0.00 33 1007.3
20260510131530 13 82 1.6 12.9 0.00 0.00 0.00 38 1007.5
20260510130023 10 46 0.0 6.4 0.00 0.00 0.00 40 1007.3
20260510124524 10 254 1.6 9.7 0.00 0.00 0.00 41 1006.4
20260510123016 10 342 0.0 0.0 0.00 0.00 0.00 41 1006.1
20260510121511 9 259 0.0 3.2 0.00 0.00 0.00 43 1005.7
20260510120011 9 245 1.6 8.0 0.00 0.00 0.00 42 1005.5
20260510114508 10 290 0.0 8.0 0.00 0.00 0.00 42 1005.5
20260510113011 10 273 1.6 9.7 0.00 0.00 0.00 41 1005.3
20260510111505 10 264 3.2 11.3 0.00 0.00 0.00 42 1005.2
20260510110003 9 232 0.0 6.4 0.00 0.00 0.00 43 1005.1
20260510104501 9 285 0.0 6.4 0.00 0.00 0.00 43 1004.9
20260510103104 9 279 1.6 6.4 0.00 0.00 0.00 43 1004.6
20260510101557 10 259 1.6 11.3 0.00 0.00 0.00 42 1004.6
20260510100055 10 234 1.6 12.9 0.00 0.00 0.00 40 1004.5
20260510094554 10 266 3.2 12.9 0.00 0.00 0.00 39 1004.4
20260510093104 10 256 0.0 12.9 0.00 0.00 0.00 40 1004.3
20260510091554 10 243 3.2 14.5 0.00 0.00 0.00 39 1004.2
20260510090051 10 253 1.6 11.3 0.00 0.00 0.00 39 1004.1
20260510084552 11 282 0.0 11.3 0.00 0.00 0.00 38 1004.1
20260510083051 11 272 0.0 16.1 0.00 0.00 0.00 38 1004.0
20260510081607 11 273 3.2 14.5 0.00 0.00 0.00 38 1004.2
20260510080042 10 240 1.6 11.3 0.00 0.00 0.00 38 1004.3
20260510074542 11 232 3.2 11.3 0.00 0.00 0.00 37 1004.5
20260510073052 10 264 3.2 9.7 0.00 0.00 0.00 37 1004.5
20260510071538 10 248 3.2 16.1 0.00 0.00 0.00 37 1004.7
20260510070038 11 231 3.2 12.9 0.00 0.00 0.00 37 1004.7
20260510064547 11 263 0.0 0.0 0.00 0.00 0.00 37 1004.7
20260510063041 11 263 0.0 8.0 0.00 0.00 0.00 36 1004.8
20260510061534 11 269 3.2 12.9 0.00 0.00 0.00 36 1004.9
20260510060040 10 244 0.0 0.0 0.00 0.00 0.00 37 1004.9
20260510054527 11 272 0.0 0.0 0.00 0.00 0.00 36 1004.9
20260510053038 11 269 0.0 0.0 0.00 0.00 0.00 36 1005.0
20260510051526 11 262 0.0 0.0 0.00 0.00 0.00 36 1005.2
20260510050026 11 275 0.0 0.0 0.00 0.00 0.00 35 1005.1
20260510044541 11 263 0.0 0.0 0.00 0.00 0.00 36 1005.2
20260510043024 11 272 0.0 0.0 0.00 0.00 0.00 35 1005.2
20260510041524 12 279 0.0 0.0 0.00 0.00 0.00 34 1005.2
20260510040036 12 259 0.0 0.0 0.00 0.00 0.00 32 1005.3
20260510034523 13 273 0.0 0.0 0.00 0.00 0.00 31 1005.2
20260510033034 13 278 0.0 0.0 0.00 0.00 0.00 30 1005.1
20260510031522 14 279 0.0 0.0 0.00 0.00 0.00 28 1005.0
20260510030021 16 287 0.0 0.0 0.00 0.00 0.00 26 1004.8
20260510024521 18 288 0.0 0.0 0.00 0.00 0.00 22 1004.6
20260510023020 18 288 0.0 0.0 0.00 0.00 0.00 21 1004.4
20260510021519 19 288 0.0 0.0 0.00 0.00 0.00 20 1004.2
20260510020022 20 288 0.0 0.0 0.00 0.00 0.00 20 1004.1
20260510014521 21 288 0.0 0.0 0.00 0.00 0.00 18 1003.9
20260510013018 22 236 0.0 0.0 0.00 0.00 0.00 18 1003.7
20260510011519 22 237 3.2 16.1 0.00 0.00 0.00 17 1003.5
20260510010022 23 246 0.0 17.7 0.00 0.00 0.00 16 1003.5
20260510004518 24 234 0.0 14.5 0.00 0.00 0.00 15 1003.5
20260510003017 25 239 1.6 12.9 0.00 0.00 0.00 15 1003.4
20260510001516 25 241 0.0 17.7 0.00 0.00 0.00 15 1003.4
20260510000018 25 294 4.8 19.3 0.00 0.00 0.00 14 1003.6
20260509234520 25 254 9.7 22.5 0.00 0.00 0.00 14 1003.6
20260509233012 25 291 9.7 20.9 0.00 0.00 0.00 14 1003.7
20260509231513 25 331 9.7 24.1 0.00 0.00 0.00 14 1003.5
20260509230018 25 246 3.2 25.7 0.00 0.00 0.00 14 1003.7
20260509224509 26 103 6.4 35.4 0.00 0.00 0.00 14 1003.6
20260509223010 26 270 8.0 22.5 0.00 0.00 0.00 13 1003.8
20260509221506 26 220 11.3 29.0 0.00 0.00 0.00 13 1004.0
20260509220004 27 232 1.6 17.7 0.00 0.00 0.00 14 1004.1
20260509214502 27 203 0.0 22.5 0.00 0.00 0.00 14 1004.3
20260509213102 26 229 0.0 17.7 0.00 0.00 0.00 14 1004.5
20260509211603 26 229 6.4 20.9 0.00 0.00 0.00 14 1004.7
20260509210055 26 330 1.6 24.1 0.00 0.00 0.00 14 1005.1
20260509204556 27 290 6.4 25.7 0.00 0.00 0.00 14 1005.1
20260509203055 27 157 0.0 22.5 0.00 0.00 0.00 14 1005.2
20260509201600 27 284 0.0 17.7 0.00 0.00 0.00 14 1005.2
20260509200103 26 319 8.0 25.7 0.00 0.00 0.00 14 1005.5
20260509194547 26 231 6.4 19.3 0.00 0.00 0.00 14 1005.5
20260509193108 25 318 1.6 12.9 0.00 0.00 0.00 15 1005.7
20260509191544 23 238 4.8 17.7 0.00 0.00 0.00 16 1005.9
20260509190043 23 328 0.0 6.4 0.00 0.00 0.00 16 1005.9
20260509184553 23 350 0.0 11.3 0.00 0.00 0.00 17 1006.0
20260509183042 24 92 0.0 0.0 0.00 0.00 0.00 18 1006.1
20260509181544 25 112 0.0 1.6 0.00 0.00 0.00 15 1006.5
20260509180037 25 44 0.0 0.0 0.00 0.00 0.00 14 1006.6
20260509174536 27 294 0.0 12.9 0.00 0.00 0.00 14 1006.7
20260509173034 25 53 0.0 11.3 0.00 0.00 0.00 15 1006.7
20260509171539 25 197 0.0 11.3 0.00 0.00 0.00 14 1006.9
20260509170026 24 225 0.0 6.4 0.00 0.00 0.00 15 1006.9